Flag for Romania Weather past 2 weeks in Sibiu, Romania

Now
41 °F

Partly cloudy.


Feels Like: 41 °F
Forecast: 37 / 52 °F
Wind: 2 mph from North

Location: Sibiu Airport

Current Time: Mar 1, 2015 at 10:59:24 PM

Latest Report: Mar 1, 2015 at 10:00 PM


Visibility: 4 mi

Pressure: 29.92 "Hg

Humidity: 93%

Dew point: 39 °F

Location of SibiuLocation

Historic Weather in Sibiu — Graph

°F

Sibiu temperature yesterday

Maximum temperature yesterday: 55 °F (at 1:30 PM)
Minimum temperature yesterday: 39 °F (at 3:00 AM)
Average temperature yesterday: 47 °F

Past Weeks' High & Low Weather Summary

 TemperatureHumidityPressure
High57 °F (Feb 23, 3:00 PM)100% (Feb 15, 2:00 AM)30.66 "Hg (Feb 15, 2:00 AM)
Low10 °F (Feb 18, 7:30 AM)18% (Feb 18, 4:00 PM)29.65 "Hg (Feb 24, 1:30 PM)
Average38 °F72%30.07 "Hg
* Reported Feb 14 9:00 PM — Mar 1 9:00 PM, Sibiu, Weather by CustomWeather, © 2015

Note: Actual official high and low records may vary slightly from our data, if they occured in-between our weather recording intervals... More about our weather records

Advertising

Sibiu weather history for previous 24 hours

 ConditionsComfort  
Time TempWeatherWind HumidityBarometerVisibility
9:00 PM
Sun, Mar 1
43 °FPassing clouds.2 mph87%29.95 "HgN/A
8:30 PM43 °FOvercast.5 mph93%29.95 "HgN/A
8:00 PM43 °FOvercast.5 mph93%29.95 "HgN/A
7:30 PM43 °FPassing clouds.2 mph93%29.95 "HgN/A
7:00 PM46 °FPassing clouds.2 mph82%29.92 "HgN/A
6:30 PM48 °FPassing clouds.5 mph66%29.92 "HgN/A
6:00 PM48 °FScattered clouds.5 mph66%29.92 "HgN/A
5:30 PM50 °FScattered clouds.7 mph67%29.92 "HgN/A
5:00 PM50 °FPartly sunny.7 mph67%29.92 "HgN/A
4:30 PM50 °FPartly sunny.14 mph67%29.92 "HgN/A
4:00 PM52 °FScattered clouds.14 mph62%29.92 "HgN/A
3:30 PM54 °FScattered clouds.14 mph63%29.95 "HgN/A
3:00 PM54 °FScattered clouds.14 mph58%29.95 "HgN/A
2:30 PM52 °FPassing clouds.15 mph62%29.95 "HgN/A
2:00 PM54 °FScattered clouds.18 mph58%29.95 "HgN/A
1:30 PM55 °FScattered clouds.16 mph59%29.95 "HgN/A
1:00 PM55 °FSunny.14 mph59%29.98 "Hg10 mi
12:00 PM50 °FScattered clouds.5 mph67%30.01 "HgN/A
11:30 AM50 °FScattered clouds.2 mph67%30.01 "HgN/A
11:00 AM48 °FSunny.1 mph71%30.04 "Hg10 mi
10:30 AM48 °FSunny.2 mph66%30.04 "Hg10 mi
10:00 AM46 °FSunny.2 mph76%30.04 "Hg10 mi
9:30 AM43 °FSunny.5 mph81%30.04 "Hg10 mi
9:00 AM41 °FSunny.2 mph87%30.04 "Hg10 mi
8:30 AM37 °FSunny.2 mph93%30.04 "Hg10 mi
8:00 AM36 °FSunny.2 mph93%30.04 "Hg10 mi
7:30 AM32 °FSunny.2 mph100%30.04 "Hg10 mi
7:00 AM34 °FClear.2 mph93%30.04 "Hg10 mi
6:30 AM32 °FClear.2 mph93%30.04 "Hg10 mi
6:00 AM32 °FClear.No wind100%30.04 "Hg10 mi
5:30 AM34 °FClear.1 mph100%30.04 "Hg10 mi
5:00 AM34 °FClear.2 mph100%30.04 "Hg10 mi
4:00 AM34 °FClear.5 mph93%30.04 "Hg10 mi
3:00 AM37 °FClear.5 mph93%30.04 "Hg10 mi
2:00 AM39 °FClear.2 mph93%30.07 "Hg10 mi
1:00 AM45 °FOvercast.2 mph81%30.07 "HgN/A
12:00 AM45 °FPassing clouds.3 mph81%30.07 "HgN/A
11:00 PM
Sat, Feb 28
45 °FMostly cloudy.1 mph87%30.04 "HgN/A
10:00 PM46 °FPassing clouds.2 mph76%30.07 "HgN/A
Weather by CustomWeather, © 2015

See weather overviewHow to use our weather pages